Weather History for Wheaton NDB, MN

Change the Weather History Date:

Friday, September 13, 2013

  Actual Average Record
Temperature  
Mean Temperature 60 °F -  
Max Temperature 75 °F 74 °F 93 °F (1952)
Min Temperature 44 °F 49 °F 35 °F (1963)
Degree Days  
Heating Degree Days 6    
Growing Degree Days 10 (Base 50)    
Moisture  
Dew Point 50 °F    
Average Humidity 70    
Maximum Humidity 100    
Minimum Humidity 41    
Precipitation  
Precipitation 0.00 in - - ()
Sea Level Pressure  
Sea Level Pressure 30.17 in    
Wind  
Wind Speed 5 mph (SE)    
Max Wind Speed 13 mph    
Max Gust Speed 21 mph    
Visibility 10 miles    
Events      
Averages and records for this station are not official NWS values.
T = Trace of Precipitation, MM = Missing Value Source: NWS Daily Summary

Daily Weather History Graph

Daily Weather History Graph

Search for Another Location

Airport:

Trip Planner

Search our weather history database for the weather conditions in past years. The results will help you decide how hot, cold, wet, or windy it might be!

Date:

Astronomy

Sep. 13, 2013 Rise Set
Actual Time 7:02 AM CDT 7:40 PM CDT
Civil Twilight 6:32 AM CDT 8:10 PM CDT
Nautical Twilight 5:56 AM CDT 8:46 PM CDT
Astronomical Twilight 5:19 AM CDT 9:23 PM CDT
Moon 3:44 PM CDT (9/13) 12:19 AM CDT (9/13)
Length of Visible Light 13h 38m
Length of Day
12h 38m
First Quarter, 61% of the Moon is Illuminated
Sep 13
First Quarter
Sep 19
Full
Sep 26
Last Quarter
Oct 4
New
Oct 11
First Quarter

Hourly Weather History & Observations

Time (CDT) Temp. Windchill Dew Point Humidity Pressure Visibility Wind Dir Wind Speed Gust Speed Precip Events Conditions
12:14 AM 53.6 °F - 50.0 °F 88% 30.26 in 10.0 mi Calm Calm - N/A   Clear
12:34 AM 53.6 °F - 51.8 °F 94% 30.26 in 10.0 mi Calm Calm - N/A   Clear
12:54 AM 50.0 °F - 48.2 °F 94% 30.26 in 10.0 mi Calm Calm - N/A   Clear
1:14 AM 48.2 °F - 46.4 °F 93% 30.26 in 10.0 mi Calm Calm - N/A   Clear
1:35 AM 48.2 °F - 46.4 °F 93% 30.26 in 10.0 mi Calm Calm - N/A   Clear
1:54 AM 48.2 °F - 46.4 °F 93% 30.26 in 10.0 mi ESE 3.5 mph - N/A   Clear
2:14 AM 48.2 °F - 46.4 °F 93% 30.26 in 10.0 mi ESE 4.6 mph - N/A   Clear
2:34 AM 48.2 °F - 46.4 °F 93% 30.26 in 10.0 mi SE 5.8 mph - N/A   Clear
2:54 AM 48.2 °F - 46.4 °F 93% 30.26 in 10.0 mi SE 4.6 mph - N/A   Clear
3:14 AM 46.4 °F 44.3 °F 46.4 °F 100% 30.26 in 10.0 mi SE 4.6 mph - N/A   Clear
3:35 AM 48.2 °F - 46.4 °F 93% 30.26 in 10.0 mi SE 4.6 mph - N/A   Clear
3:55 AM 48.2 °F - 46.4 °F 93% 30.26 in 10.0 mi SE 5.8 mph - N/A   Clear
4:14 AM 51.8 °F - 48.2 °F 88% 30.26 in 10.0 mi SE 4.6 mph - N/A   Clear
4:35 AM 51.8 °F - 48.2 °F 88% 30.26 in 10.0 mi SE 3.5 mph - N/A   Clear
4:54 AM 46.4 °F 43.5 °F 44.6 °F 93% 30.26 in 10.0 mi SE 5.8 mph - N/A   Clear
5:14 AM 46.4 °F 45.2 °F 44.6 °F 93% 30.26 in 10.0 mi SSE 3.5 mph - N/A   Clear
5:34 AM 46.4 °F 45.2 °F 46.4 °F 100% 30.26 in 10.0 mi SSE 3.5 mph - N/A   Clear
5:55 AM 53.6 °F - 50.0 °F 88% 30.26 in 10.0 mi South 4.6 mph - N/A   Clear
6:15 AM 51.8 °F - 48.2 °F 88% 30.26 in 10.0 mi Calm Calm - N/A   Clear
6:35 AM 48.2 °F - 46.4 °F 93% 30.26 in 10.0 mi Calm Calm - N/A   Clear
6:54 AM 46.4 °F - 44.6 °F 93% 30.27 in 10.0 mi Calm Calm - N/A   Clear
7:15 AM 44.6 °F 43.1 °F 44.6 °F 100% 30.27 in 10.0 mi ESE 3.5 mph - N/A   Clear
7:34 AM 44.6 °F 41.4 °F 42.8 °F 93% 30.27 in 10.0 mi East 5.8 mph - N/A   Clear
7:54 AM 46.4 °F 42.9 °F 46.4 °F 100% 30.26 in 10.0 mi ESE 6.9 mph - N/A   Clear
8:15 AM 50.0 °F - 48.2 °F 94% 30.26 in 10.0 mi ESE 5.8 mph - N/A   Clear
8:34 AM 53.6 °F - 51.8 °F 94% 30.25 in 10.0 mi SE 5.8 mph - N/A   Clear
8:54 AM 57.2 °F - 53.6 °F 88% 30.25 in 10.0 mi SSE 6.9 mph - N/A   Clear
9:14 AM 60.8 °F - 53.6 °F 77% 30.25 in 10.0 mi South 8.1 mph - N/A   Clear
9:34 AM 62.6 °F - 53.6 °F 72% 30.25 in 10.0 mi SSE 10.4 mph - N/A   Clear
9:54 AM 64.4 °F - 53.6 °F 68% 30.25 in 10.0 mi SSE 10.4 mph - N/A   Clear
10:15 AM 66.2 °F - 51.8 °F 60% 30.25 in 10.0 mi SSE 10.4 mph - N/A   Clear
10:35 AM 68.0 °F - 51.8 °F 56% 30.24 in 10.0 mi SSE 9.2 mph - N/A   Clear
10:55 AM 69.8 °F - 51.8 °F 53% 30.24 in 10.0 mi SSE 9.2 mph - N/A   Clear
11:15 AM 69.8 °F - 51.8 °F 53% 30.24 in 10.0 mi South 8.1 mph - N/A   Clear
11:34 AM 69.8 °F - 51.8 °F 53% 30.23 in 10.0 mi SSE 10.4 mph - N/A   Clear
11:54 AM 71.6 °F - 51.8 °F 50% 30.22 in 10.0 mi South 9.2 mph - N/A   Clear
12:14 PM 71.6 °F - 51.8 °F 50% 30.21 in 10.0 mi SSE 6.9 mph - N/A   Clear
12:35 PM 71.6 °F - 51.8 °F 50% 30.21 in 10.0 mi South 8.1 mph - N/A   Clear
12:56 PM 71.6 °F - 51.8 °F 50% 30.20 in 10.0 mi South 8.1 mph - N/A   Clear
1:15 PM 73.4 °F - 51.8 °F 47% 30.19 in 10.0 mi SE 12.7 mph 16.1 mph N/A   Clear
1:34 PM 73.4 °F - 51.8 °F 47% 30.18 in 10.0 mi South 10.4 mph - N/A   Clear
1:54 PM 75.2 °F - 51.8 °F 44% 30.16 in 10.0 mi SSE 8.1 mph 16.1 mph N/A   Clear
2:14 PM 75.2 °F - 51.8 °F 44% 30.15 in 10.0 mi SE 8.1 mph - N/A   Clear
2:35 PM 75.2 °F - 51.8 °F 44% 30.15 in 10.0 mi South 8.1 mph - N/A   Clear
2:54 PM 75.2 °F - 51.8 °F 44% 30.14 in 10.0 mi SSE 11.5 mph 16.1 mph N/A   Clear
3:14 PM 75.2 °F - 51.8 °F 44% 30.13 in 10.0 mi SSE 10.4 mph 17.3 mph N/A   Clear
3:35 PM 75.2 °F - 51.8 °F 44% 30.12 in 10.0 mi South 12.7 mph 16.1 mph N/A   Clear
3:55 PM 75.2 °F - 51.8 °F 44% 30.11 in 10.0 mi SSE 11.5 mph 20.7 mph N/A   Clear
4:15 PM 75.2 °F - 51.8 °F 44% 30.10 in 10.0 mi SSE 9.2 mph 18.4 mph N/A   Clear
4:35 PM 75.2 °F - 51.8 °F 44% 30.10 in 10.0 mi SSE 9.2 mph 17.3 mph N/A   Clear
4:55 PM 75.2 °F - 51.8 °F 44% 30.09 in 10.0 mi SE 10.4 mph 18.4 mph N/A   Clear
5:15 PM 75.2 °F - 51.8 °F 44% 30.08 in 10.0 mi SSE 12.7 mph 17.3 mph N/A   Clear
5:34 PM 75.2 °F - 51.8 °F 44% 30.08 in 10.0 mi SE 9.2 mph - N/A   Clear
5:54 PM 75.2 °F - 50.0 °F 41% 30.07 in 10.0 mi SE 11.5 mph - N/A   Clear
6:14 PM 75.2 °F - 50.0 °F 41% 30.07 in 10.0 mi SSE 11.5 mph - N/A   Clear
6:34 PM 73.4 °F - 51.8 °F 47% 30.06 in 10.0 mi SE 10.4 mph - N/A   Clear
6:54 PM 73.4 °F - 51.8 °F 47% 30.06 in 10.0 mi SE 9.2 mph - N/A   Clear
7:00 PM 73.4 °F - 51.8 °F 47% 30.05 in 10.0 mi SE 11.5 mph 16.1 mph N/A   Clear
7:34 PM 68.0 °F - 51.8 °F 56% 30.05 in 10.0 mi SE 8.1 mph - N/A   Clear
7:54 PM 66.2 °F - 51.8 °F 60% 30.05 in 10.0 mi SE 6.9 mph - N/A   Clear
8:14 PM 64.4 °F - 51.8 °F 64% 30.05 in 10.0 mi SE 8.1 mph - N/A   Clear
8:34 PM 64.4 °F - 51.8 °F 64% 30.05 in 10.0 mi SE 6.9 mph - N/A   Clear
8:54 PM 62.6 °F - 51.8 °F 68% 30.05 in 10.0 mi SE 8.1 mph - N/A   Clear
9:14 PM 60.8 °F - 51.8 °F 72% 30.04 in 10.0 mi SE 8.1 mph - N/A   Clear
9:34 PM 60.8 °F - 51.8 °F 72% 30.04 in 10.0 mi SE 9.2 mph - N/A   Clear
9:54 PM 60.8 °F - 51.8 °F 72% 30.03 in 10.0 mi SE 9.2 mph - N/A   Clear
10:14 PM 60.8 °F - 51.8 °F 72% 30.03 in 10.0 mi SE 10.4 mph - N/A   Clear
10:34 PM 60.8 °F - 51.8 °F 72% 30.03 in 10.0 mi SE 10.4 mph - N/A   Clear
10:55 PM 60.8 °F - 51.8 °F 72% 30.03 in 10.0 mi SSE 12.7 mph - N/A   Clear
11:14 PM 60.8 °F - 50.0 °F 68% 30.03 in 10.0 mi SE 11.5 mph - N/A   Clear
11:35 PM 59.0 °F - 50.0 °F 72% 30.03 in 10.0 mi SSE 9.2 mph - N/A   Clear
11:55 PM 59.0 °F - 51.8 °F 77% 30.02 in 10.0 mi SSE 9.2 mph - N/A   Clear